Wetbulb
53.20 55.80 57.25 59.59 60.54 61.44 61.57 61.30 58.84 58.02 57.45 56.44 55.84 53.67 53.14 53.26 53.35 53.85 53.76 53.37 52.75 52.35 52.53 51.84 51.71 51.48 50.34 49.51 49.58 48.51 47.56 47.15 48.43 45.91 45.48 46.65 50.41 50.18 49.06 48.64 47.61 46.47 46.35
53.27 53.90 55.72 57.97 59.84 60.44 61.20 60.00 59.67 57.42 57.02 56.46 56.35 55.29 54.19 53.39 53.00 52.24 51.36 51.42 51.45 51.65 51.31 51.53 50.35 50.21 49.41 48.66 47.97 47.31 45.61 45.89 47.01 43.73 43.37 41.30 43.69 47.60 47.54 47.34 46.36 45.46 45.59
51.48 51.92 53.18 54.81 56.43 57.49 58.09 57.88 57.56 57.97 57.47 56.50 54.94 53.70 53.32 52.66 51.78 52.02 51.52 50.18 50.69 50.77 50.75 50.37 49.93 49.56 49.27 47.42 46.99 46.54 45.22 43.30 45.57 45.79 43.02 39.24 38.08 40.88 44.93 44.67 44.62 44.15 43.89
51.51 51.88 51.90 52.11 53.08 53.73 54.52 55.52 54.82 54.84 54.76 54.59 54.33 53.28 53.42 52.48 51.63 51.98 50.93 50.36 50.06 49.97 49.80 49.36 49.39 49.03 48.58 46.70 46.09 46.29 45.86 44.87 42.28 44.06 45.43 44.28 41.79 35.99 35.30 41.69 42.47 43.07 42.81
51.79 51.48 51.84 52.33 52.08 52.50 53.18 53.25 53.50 53.31 53.22 53.42 53.37 52.93 51.60 51.27 51.47 52.03 50.58 50.28 50.19 49.44 48.92 48.95 48.23 47.88 47.58 46.88 45.71 45.26 44.49 44.33 42.59 41.90 41.02 39.67 40.56 40.42 36.59 34.42 37.55 40.67 42.10
51.05 51.64 52.09 52.26 52.12 52.27 52.39 52.44 52.62 51.71 51.58 51.76 52.02 51.88 51.05 49.87 49.71 49.56 49.51 49.28 49.08 49.12 48.45 47.65 47.77 47.28 46.49 45.77 45.41 44.87 43.79 43.55 43.02 42.73 41.95 40.06 38.14 37.45 36.19 34.52 36.04 36.76 39.49
51.10 51.24 51.11 50.92 51.55 51.41 51.28 51.72 51.94 50.19 50.35 49.91 49.87 49.79 49.04 47.86 47.16 47.25 47.12 47.06 47.49 47.39 48.20 47.89 47.27 46.27 45.76 45.27 44.56 43.99 43.55 43.30 42.47 42.51 41.76 41.84 41.01 41.01 39.27 36.78 34.29 34.01 38.30
51.09 51.06 51.64 52.06 52.51 51.43 50.89 51.10 50.26 47.98 47.40 47.97 47.78 47.90 47.44 48.18 47.97 47.57 47.54 47.33 47.35 47.86 48.47 47.62 46.68 45.55 45.22 44.82 44.48 43.99 43.99 43.64 43.38 42.53 42.14 41.43 41.33 41.04 38.19 36.17 34.22 32.39 33.89
50.63 51.13 51.61 51.64 51.13 50.54 49.59 50.32 47.90 46.70 46.39 45.64 47.06 46.87 47.59 46.94 46.93 47.22 47.39 47.10 47.41 46.46 46.58 46.26 45.53 45.59 45.33 45.09 44.76 44.18 43.45 43.07 42.60 41.66 41.09 40.37 40.52 39.82 38.17 38.22 36.28 32.63 29.07
48.14 48.04 48.05 47.89 47.70 48.07 47.02 45.99 45.09 43.74 44.02 45.10 45.88 45.69 45.43 45.34 45.71 46.24 45.84 45.91 45.93 45.53 45.16 45.04 44.76 44.44 44.10 44.22 44.04 43.38 42.54 41.28 41.18 39.60 37.18 36.83 37.00 36.55 36.85 36.11 35.45 34.61 31.88
45.37 45.04 45.22 45.56 44.80 45.04 44.98 44.35 42.90 42.70 44.48 43.86 43.86 44.18 44.22 44.16 44.41 44.03 44.28 44.40 44.36 44.78 44.45 44.45 43.62 42.92 43.02 43.42 42.02 40.70 39.81 37.27 36.72 36.70 35.38 35.13 35.60 34.66 34.38 33.97 33.22 31.98 31.58
43.94 44.24 44.79 45.31 45.55 45.20 44.32 43.39 43.65 43.45 43.31 43.36 43.60 43.37 43.25 43.28 42.86 42.64 43.02 43.61 43.39 44.31 44.20 43.80 42.24 42.14 41.92 41.50 39.16 38.08 37.00 35.49 34.17 34.42 34.37 33.86 33.52 33.02 32.88 32.21 31.25 30.84 31.25
43.35 43.58 43.39 43.47 43.94 43.22 43.99 43.82 41.87 41.81 42.28 42.07 41.95 42.41 42.31 42.02 41.72 41.69 42.14 42.32 41.97 42.06 42.34 41.65 41.27 40.69 39.74 37.48 36.44 35.77 34.42 34.08 33.58 33.53 32.85 32.59 32.35 31.54 31.82 31.33 30.61 30.71 30.57
42.78 42.81 42.25 42.43 42.83 43.14 42.35 40.82 41.44 41.30 41.10 41.03 40.73 41.29 41.29 41.04 41.10 41.25 41.22 41.02 41.22 40.92 40.82 40.38 40.05 39.68 37.27 35.33 34.30 34.47 33.94 33.18 32.98 33.16 32.85 32.46 31.79 31.24 30.80 29.92 29.31 29.15 27.79
41.49 41.46 41.44 41.92 41.75 40.82 40.35 39.96 39.86 40.14 40.18 39.42 39.32 40.69 41.22 41.09 40.72 40.64 40.61 40.62 40.30 40.13 39.93 39.11 37.33 35.78 35.46 35.04 34.83 33.80 33.43 33.18 32.72 32.65 31.89 31.63 30.96 29.85 29.30 28.77 28.37 28.20 26.40
41.01 40.90 40.59 40.08 39.42 39.10 38.38 37.83 38.27 38.77 38.75 38.36 38.98 40.57 40.81 40.11 39.92 39.94 39.76 39.67 39.16 38.48 37.82 36.73 35.73 35.71 35.57 32.87 32.98 33.09 33.22 31.90 30.16 28.72 28.95 28.99 27.90 28.01 27.17 26.65 26.86 26.95 24.89
40.39 39.47 39.73 38.92 38.94 37.83 37.10 37.32 37.38 37.71 37.62 37.67 38.62 38.94 39.52 38.58 38.66 38.90 38.87 38.63 38.45 37.76 36.80 35.99 35.50 34.37 33.98 32.11 32.09 29.87 31.22 29.37 28.49 27.55 27.05 26.89 27.24 26.88 26.96 26.46 26.62 27.26 27.68
40.06 39.79 39.47 38.24 37.37 36.87 37.02 36.81 37.17 36.94 36.52 36.50 36.50 37.28 37.65 37.07 38.04 38.02 37.90 38.10 38.37 38.11 36.90 36.62 33.98 32.94 32.38 30.52 30.18 28.32 29.77 28.73 27.72 27.26 26.98 26.39 26.32 26.65 25.57 26.78 27.95 26.98 27.79
40.64 40.12 38.91 37.36 36.48 36.18 36.01 36.22 35.88 35.42 34.92 34.45 34.99 35.62 36.64 37.00 36.95 36.33 36.45 37.03 36.01 35.36 34.72 33.87 32.37 31.59 31.20 28.68 28.68 28.28 28.97 27.50 26.78 26.91 27.09 26.46 25.80 25.61 26.78 26.35 25.23 25.14 25.94
39.83 36.85 36.05 35.61 35.92 35.39 35.81 35.19 34.41 33.66 33.30 34.42 35.18 36.16 37.12 36.88 35.75 35.86 35.37 35.89 34.59 33.12 33.38 31.54 31.69 30.07 30.17 27.26 27.80 28.27 28.60 26.62 26.47 26.92 26.62 25.24 25.05 25.10 25.71 25.53 25.04 22.86 24.44
35.08 35.66 35.76 35.34 34.98 35.27 35.32 34.27 33.50 32.48 33.97 35.04 35.60 36.33 36.87 36.24 36.37 35.33 34.99 34.54 33.01 32.75 32.25 31.15 30.75 30.35 29.52 28.82 26.93 27.15 28.37 26.94 25.72 25.19 24.90 25.50 24.06 24.80 24.63 24.66 24.64 24.29 24.82
34.56 35.03 34.79 34.16 35.01 35.25 34.57 33.62 32.57 33.67 34.65 34.98 34.32 33.74 33.53 32.81 34.18 34.14 33.17 32.43 32.56 31.76 29.18 28.97 29.82 30.63 29.85 27.24 27.25 26.80 26.73 26.88 26.01 24.25 24.79 24.46 23.41 23.10 22.90 23.21 23.31 23.44 23.50
34.64 34.39 33.68 33.31 34.10 34.29 34.33 32.72 33.50 33.79 33.69 33.70 32.26 33.20 33.28 33.77 33.96 32.37 32.51 32.03 31.52 30.69 30.34 29.13 28.66 29.08 29.70 29.61 26.50 26.52 26.04 26.31 25.12 25.37 23.42 21.92 21.55 21.33 22.15 21.37 21.45 21.89 22.34
33.82 33.60 32.88 32.19 32.28 33.13 33.42 33.63 33.31 33.57 32.45 30.96 32.22 33.37 32.69 32.43 32.58 32.37 31.97 31.14 30.65 29.47 28.43 28.09 28.16 28.68 28.50 28.88 29.36 27.79 28.26 25.71 24.27 23.22 22.80 20.27 20.15 19.44 20.19 21.47 21.72 21.80 20.22
32.79 32.57 32.00 31.99 31.93 32.80 32.80 33.08 33.38 33.21 31.50 30.33 29.77 30.34 31.26 31.64 31.51 31.52 31.20 30.30 31.03 30.49 29.02 28.96 29.23 28.41 27.98 28.75 27.90 27.13 27.50 26.69 24.16 21.25 21.48 20.43 19.56 19.21 19.69 20.52 19.84 19.83 18.25
31.97 31.85 32.07 31.90 32.08 31.78 31.36 31.88 33.30 33.00 31.03 29.58 29.75 30.37 30.28 31.40 30.94 30.36 29.98 30.33 30.31 29.16 29.83 30.02 30.27 30.79 28.37 27.08 27.33 27.60 26.31 24.00 21.58 21.46 19.78 18.21 17.63 17.51 17.61 18.20 18.10 18.46 16.06
MSLP
1021.11 1021.06 1020.75 1020.80 1021.04 1021.25 1021.61 1021.88 1022.32 1022.98 1022.91 1023.83 1024.54 1024.62 1025.02 1024.72 1024.49 1024.54 1024.68 1024.78 1024.91 1025.09 1025.18 1025.22 1025.35 1025.38 1025.32 1025.53 1025.52 1025.32 1025.03 1024.48 1024.46 1023.87 1023.20 1022.70 1022.54 1022.60 1022.69 1022.65 1022.74 1022.76 1022.62
1021.26 1021.26 1021.10 1021.19 1021.11 1021.26 1021.60 1022.21 1022.30 1022.98 1022.84 1023.55 1023.91 1023.94 1024.42 1024.65 1024.70 1024.97 1025.25 1025.51 1025.59 1025.36 1025.31 1025.46 1025.51 1025.62 1025.56 1025.77 1025.77 1025.60 1025.11 1024.71 1024.66 1024.12 1023.45 1022.47 1022.48 1022.63 1022.64 1022.81 1022.80 1022.98 1022.65
1021.28 1021.49 1021.51 1021.50 1021.56 1021.61 1021.76 1022.07 1022.34 1022.50 1023.01 1023.54 1023.97 1024.16 1024.43 1024.92 1025.08 1025.19 1025.15 1025.55 1025.71 1025.53 1025.69 1025.71 1025.71 1025.83 1025.84 1025.76 1025.71 1025.53 1025.31 1024.85 1024.76 1024.84 1024.47 1023.32 1022.58 1022.99 1022.71 1022.82 1023.00 1022.96 1022.81
1021.53 1021.59 1021.62 1021.66 1021.92 1022.09 1022.04 1021.99 1022.58 1023.03 1023.46 1023.76 1023.99 1024.13 1024.03 1024.32 1024.88 1025.21 1025.41 1025.61 1025.88 1025.67 1025.95 1025.88 1025.82 1025.82 1025.81 1025.70 1025.57 1025.46 1025.46 1025.27 1024.81 1024.78 1024.82 1024.80 1024.68 1024.15 1023.07 1022.91 1022.91 1022.82 1022.59
1021.23 1021.29 1021.50 1021.82 1022.41 1022.69 1022.72 1022.84 1022.94 1023.60 1023.85 1023.85 1024.01 1024.32 1024.50 1024.92 1025.14 1025.51 1025.57 1025.72 1025.95 1025.91 1025.96 1025.86 1025.75 1025.60 1025.52 1025.51 1025.55 1025.51 1025.44 1025.42 1025.37 1025.09 1025.06 1025.08 1024.75 1024.54 1024.12 1022.97 1022.70 1022.62 1022.60
1021.11 1021.39 1021.61 1021.85 1022.21 1022.82 1023.05 1022.98 1023.33 1023.59 1023.95 1024.14 1024.29 1024.49 1024.81 1025.21 1025.29 1025.46 1025.53 1025.72 1025.79 1025.70 1025.74 1025.66 1025.56 1025.44 1025.32 1025.34 1025.45 1025.60 1025.57 1025.47 1025.37 1025.20 1024.97 1024.73 1024.48 1024.18 1024.02 1023.79 1023.28 1022.88 1022.25
1020.88 1021.22 1021.70 1022.17 1022.59 1022.95 1023.29 1023.49 1023.54 1024.07 1024.43 1024.44 1024.64 1024.79 1025.19 1025.30 1025.19 1025.36 1025.46 1025.49 1025.41 1025.36 1025.26 1025.33 1025.28 1025.31 1025.45 1025.53 1025.58 1025.45 1025.35 1025.25 1025.11 1024.97 1024.76 1024.64 1024.47 1024.22 1024.05 1023.96 1023.66 1023.22 1022.43
1020.84 1021.33 1021.79 1022.24 1022.61 1023.15 1023.47 1023.59 1023.84 1024.26 1024.57 1024.76 1024.81 1025.02 1025.14 1025.12 1025.31 1025.46 1025.46 1025.38 1025.18 1024.90 1024.83 1025.03 1025.21 1025.32 1025.29 1025.18 1025.18 1025.08 1024.92 1024.91 1024.91 1024.85 1024.76 1024.58 1024.37 1024.26 1024.34 1024.14 1023.95 1023.17 1022.09
1020.95 1021.44 1022.04 1022.47 1022.86 1023.26 1023.74 1024.00 1024.22 1024.58 1024.93 1025.14 1025.11 1025.18 1025.31 1025.48 1025.57 1025.61 1025.54 1025.38 1025.19 1025.09 1025.12 1025.12 1025.05 1024.85 1024.77 1024.77 1024.74 1024.59 1024.42 1024.47 1024.53 1024.61 1024.49 1024.41 1024.30 1024.34 1024.30 1024.05 1023.83 1023.56 1022.31
1021.27 1021.83 1022.42 1022.96 1023.37 1023.74 1024.16 1024.40 1024.70 1025.09 1025.24 1025.09 1025.25 1025.44 1025.62 1025.70 1025.72 1025.63 1025.37 1025.32 1025.16 1025.06 1024.95 1024.74 1024.59 1024.45 1024.39 1024.38 1024.39 1024.24 1024.14 1024.39 1024.40 1024.53 1024.51 1024.42 1024.36 1024.32 1024.21 1024.02 1023.84 1023.51 1022.82
1021.79 1022.39 1022.93 1023.39 1023.83 1024.16 1024.46 1024.73 1025.07 1025.23 1025.27 1025.31 1025.50 1025.59 1025.58 1025.57 1025.43 1025.32 1025.22 1025.10 1025.01 1024.69 1024.53 1024.36 1024.13 1024.04 1024.01 1023.98 1024.02 1024.20 1024.40 1024.44 1024.53 1024.55 1024.50 1024.38 1024.37 1024.16 1023.93 1023.78 1023.50 1023.10 1022.74
1022.26 1022.86 1023.38 1023.78 1023.98 1024.34 1024.69 1024.94 1025.16 1025.24 1025.21 1025.41 1025.46 1025.44 1025.43 1025.38 1025.39 1025.35 1025.17 1024.99 1024.70 1024.37 1024.18 1024.09 1024.06 1024.06 1024.07 1023.94 1024.11 1024.15 1024.22 1024.42 1024.50 1024.51 1024.50 1024.32 1024.18 1024.00 1023.73 1023.48 1023.14 1022.82 1022.51
1022.67 1023.24 1023.71 1023.87 1024.04 1024.49 1024.88 1025.12 1025.33 1025.36 1025.45 1025.48 1025.43 1025.34 1025.44 1025.51 1025.49 1025.38 1025.19 1024.89 1024.67 1024.36 1024.13 1024.08 1024.00 1024.06 1024.10 1024.15 1024.29 1024.26 1024.21 1024.43 1024.52 1024.59 1024.49 1024.22 1024.02 1023.66 1023.34 1023.16 1022.78 1022.41 1022.03
1022.80 1023.25 1023.58 1023.90 1024.25 1024.70 1025.21 1025.18 1025.37 1025.52 1025.50 1025.43 1025.44 1025.53 1025.62 1025.63 1025.53 1025.35 1025.08 1024.86 1024.64 1024.29 1024.07 1023.97 1024.02 1024.14 1024.33 1024.37 1024.58 1024.25 1024.30 1024.42 1024.45 1024.49 1024.34 1024.02 1023.76 1023.45 1023.09 1022.81 1022.52 1022.23 1021.83
1022.91 1023.24 1023.65 1024.18 1024.53 1024.90 1025.16 1025.44 1025.49 1025.45 1025.58 1025.61 1025.60 1025.55 1025.59 1025.54 1025.36 1025.13 1024.92 1024.69 1024.52 1024.30 1024.17 1024.09 1024.12 1024.48 1024.42 1024.19 1024.22 1024.22 1024.28 1024.27 1024.24 1024.19 1024.02 1023.74 1023.66 1023.62 1023.31 1022.88 1022.22 1021.94 1021.55
1022.78 1023.35 1023.91 1024.34 1024.52 1024.83 1025.27 1025.55 1025.59 1025.65 1025.78 1025.62 1025.43 1025.42 1025.44 1025.34 1025.14 1024.94 1024.79 1024.61 1024.47 1024.24 1024.12 1024.21 1024.26 1024.15 1024.08 1024.39 1024.39 1024.29 1024.26 1024.32 1024.22 1023.97 1023.68 1023.41 1023.32 1022.96 1023.01 1022.84 1022.51 1022.20 1021.50
1022.75 1023.30 1023.68 1024.13 1024.59 1024.95 1025.28 1025.51 1025.70 1025.83 1025.73 1025.64 1025.44 1025.30 1025.19 1025.05 1024.93 1024.86 1024.60 1024.31 1024.19 1024.11 1024.05 1024.01 1024.05 1024.16 1024.19 1024.38 1024.41 1024.69 1024.46 1024.39 1024.23 1023.95 1023.57 1023.17 1022.99 1022.92 1022.47 1022.09 1021.70 1021.16 1020.73
1022.53 1023.10 1023.58 1024.07 1024.56 1024.96 1025.34 1025.74 1025.79 1025.78 1025.83 1025.67 1025.41 1025.11 1024.90 1024.78 1024.69 1024.58 1024.33 1024.11 1023.91 1023.75 1023.69 1023.84 1024.01 1024.14 1024.33 1024.45 1024.54 1024.70 1024.38 1024.30 1024.08 1023.85 1023.52 1023.16 1022.84 1022.55 1022.41 1021.56 1020.84 1020.38 1019.77
1022.41 1023.12 1023.75 1024.27 1024.69 1025.16 1025.58 1025.66 1025.72 1025.82 1025.77 1025.56 1025.32 1025.11 1024.82 1024.60 1024.48 1024.23 1024.08 1023.89 1023.73 1023.48 1023.58 1023.82 1023.98 1024.10 1024.28 1024.47 1024.49 1024.49 1024.32 1024.11 1023.91 1023.70 1023.36 1023.08 1022.70 1022.54 1022.08 1021.29 1020.54 1019.86 1019.24
1022.69 1023.29 1023.86 1024.48 1024.86 1025.24 1025.48 1025.59 1025.68 1025.73 1025.65 1025.58 1025.36 1025.02 1024.65 1024.49 1024.33 1024.12 1023.86 1023.68 1023.48 1023.34 1023.51 1023.76 1023.97 1024.12 1024.20 1024.48 1024.38 1024.35 1024.25 1024.06 1023.72 1023.36 1022.99 1022.83 1022.69 1022.25 1021.67 1021.08 1020.41 1019.78 1018.94
1022.99 1023.67 1024.10 1024.43 1024.86 1025.17 1025.41 1025.56 1025.69 1025.68 1025.68 1025.52 1025.23 1024.87 1024.64 1024.47 1024.12 1023.91 1023.67 1023.42 1023.51 1023.60 1023.82 1023.98 1024.00 1024.01 1024.13 1024.19 1024.31 1024.25 1024.07 1023.90 1023.56 1023.19 1022.79 1022.51 1022.46 1021.90 1021.40 1021.01 1020.43 1019.91 1019.35
1023.59 1024.06 1024.34 1024.70 1025.00 1025.28 1025.49 1025.49 1025.57 1025.57 1025.51 1025.30 1025.05 1024.71 1024.46 1024.28 1024.13 1023.81 1023.47 1023.37 1023.56 1023.59 1023.84 1023.90 1023.85 1023.79 1023.89 1024.02 1023.99 1024.05 1023.96 1023.82 1023.53 1023.25 1022.93 1022.63 1022.30 1021.85 1021.41 1020.95 1020.47 1019.95 1019.34
1023.49 1024.18 1024.54 1024.94 1025.10 1025.22 1025.34 1025.39 1025.37 1025.43 1025.27 1024.91 1024.73 1024.36 1024.20 1023.93 1023.80 1023.71 1023.47 1023.42 1023.52 1023.52 1023.58 1023.63 1023.53 1023.43 1023.51 1023.55 1023.78 1023.75 1023.76 1023.55 1023.50 1023.29 1023.07 1022.79 1022.39 1021.85 1021.27 1020.91 1020.45 1019.91 1019.33
1024.01 1024.44 1024.70 1024.87 1025.01 1025.17 1025.25 1025.26 1025.23 1025.16 1024.96 1024.75 1024.46 1024.27 1023.92 1023.77 1023.67 1023.54 1023.58 1023.41 1023.42 1023.43 1023.41 1023.32 1023.24 1023.18 1023.13 1023.14 1023.22 1023.31 1023.25 1023.26 1023.26 1023.10 1022.81 1022.78 1022.39 1021.86 1021.43 1020.82 1020.40 1020.04 1019.71
1024.23 1024.51 1024.68 1024.82 1024.92 1025.01 1025.00 1025.05 1024.93 1024.79 1024.62 1024.57 1024.47 1024.23 1023.94 1023.62 1023.55 1023.34 1023.28 1023.27 1023.22 1023.27 1023.18 1022.96 1022.95 1022.88 1022.73 1022.68 1022.94 1022.98 1022.83 1022.91 1022.98 1022.97 1022.70 1022.38 1022.11 1021.60 1021.18 1020.81 1020.55 1020.23 1019.91
1024.32 1024.58 1024.76 1024.81 1024.83 1024.94 1024.93 1024.86 1024.61 1024.40 1024.38 1024.28 1024.08 1023.92 1023.84 1023.42 1023.26 1023.16 1022.97 1023.00 1022.88 1022.85 1022.73 1022.60 1022.64 1022.53 1022.56 1022.67 1022.69 1022.58 1022.59 1022.72 1022.84 1022.59 1022.39 1022.24 1022.09 1021.71 1021.33 1020.93 1020.62 1020.34 1020.20
Wind_Speed
4 6 9 10 13 14 15 14 13 7 9 3 4 5 3 2 3 4 6 7 7 6 6 4 4 4 5 5 5 5 7 6 5 6 6 6 4 5 2 3 4 6 6
9 8 10 10 11 12 11 7 10 10 8 8 6 3 3 3 3 4 5 5 5 5 5 5 5 5 4 5 5 5 5 5 5 5 6 4 4 2 3 2 2 6 7
12 9 8 8 7 9 9 10 9 8 6 6 5 4 4 3 4 3 3 5 5 6 5 5 4 3 2 3 5 5 6 6 5 5 4 5 4 7 3 6 4 7 6
7 7 9 9 8 7 7 10 9 10 8 6 4 2 1 2 3 2 3 3 4 5 3 3 2 1 1 3 4 3 4 5 6 5 2 5 5 5 7 5 9 9 8
8 11 10 9 5 4 5 7 9 7 5 5 5 3 5 4 3 2 1 1 1 1 1 3 3 3 2 3 4 4 4 3 5 4 4 5 5 6 6 9 8 7 8
9 8 7 8 6 4 4 6 7 8 7 7 8 8 7 4 2 3 3 2 3 3 5 5 5 5 4 4 3 4 5 5 5 4 5 5 5 7 7 9 11 11 10
10 9 8 5 4 5 5 5 7 7 6 7 7 7 5 4 4 4 4 5 3 4 7 8 7 4 4 4 4 5 6 6 6 6 5 5 7 8 9 9 8 8 9
9 8 7 7 6 5 5 6 7 7 5 5 6 4 2 2 2 4 4 4 5 6 7 6 5 5 6 6 5 5 5 6 6 8 6 6 6 6 7 7 4 8 12
8 7 6 6 6 6 5 6 7 6 5 4 3 1 2 4 5 7 7 6 7 7 7 6 7 8 7 7 6 6 7 6 6 6 7 6 4 4 4 4 5 7 12
5 6 6 6 6 7 6 6 5 3 2 3 5 5 5 5 6 6 8 9 9 9 9 8 8 8 7 7 7 8 6 6 5 3 4 4 4 5 5 6 6 7 11
9 9 8 7 7 7 6 6 4 4 4 3 3 4 5 5 5 6 7 8 9 9 9 9 9 8 7 7 6 5 6 4 4 3 5 7 7 7 7 8 8 8 9
10 9 8 7 7 8 7 5 4 4 5 4 4 4 4 5 5 5 7 8 9 9 10 10 8 8 7 6 5 7 3 2 4 5 7 10 8 11 9 8 10 9 11
10 8 6 7 7 6 5 5 6 6 5 5 5 6 5 5 6 6 7 8 10 10 9 6 6 6 5 1 2 3 2 1 5 7 9 11 11 11 9 10 10 10 10
8 7 6 6 6 5 5 6 5 5 5 6 6 5 4 5 5 6 8 9 9 8 7 5 4 5 4 3 4 2 1 4 6 8 10 11 11 12 13 12 13 11 11
7 7 7 5 5 6 5 4 3 5 6 6 6 4 5 5 5 7 8 10 7 6 7 7 6 1 4 4 3 1 4 6 8 9 10 10 13 17 15 11 13 13 12
8 8 7 5 6 5 4 2 4 4 5 5 5 5 5 6 6 8 9 8 6 5 4 4 2 2 2 5 4 5 5 6 8 10 11 12 14 12 15 16 18 16 13
9 8 7 6 6 5 3 3 5 5 5 6 8 7 6 7 7 7 8 8 7 5 5 4 4 3 2 4 5 5 4 6 8 10 11 11 8 12 12 14 16 16 17
10 8 7 7 6 4 3 1 3 5 6 7 8 9 7 7 7 7 8 9 7 7 7 5 3 3 2 3 3 2 5 6 8 10 10 11 12 11 13 14 12 12 14
8 7 7 7 5 4 2 2 4 5 6 8 9 10 8 7 6 7 9 9 8 9 7 4 5 3 2 2 2 4 5 7 10 9 10 12 12 13 18 14 13 13 13
8 9 8 6 5 3 2 3 4 6 6 8 9 9 7 6 7 9 9 8 6 5 2 4 3 2 2 0 2 5 4 7 8 10 11 11 12 18 18 13 11 12 12
11 8 6 4 3 2 1 3 5 6 6 8 8 7 7 9 10 9 8 8 5 1 2 2 2 3 3 3 4 5 5 7 8 9 9 8 16 19 17 16 10 12 12
8 6 4 3 1 1 3 5 6 7 6 8 7 6 8 7 7 9 7 5 4 2 2 2 3 3 4 5 5 7 7 10 8 9 8 10 17 17 15 12 15 14 11
7 4 2 0 1 2 4 6 7 7 8 8 8 8 9 7 6 6 5 3 2 3 3 3 4 4 3 4 6 8 8 8 6 6 11 13 14 13 9 12 13 10 7
5 3 2 2 4 4 4 5 6 6 7 9 9 9 8 8 6 4 3 3 3 3 4 4 5 4 4 4 4 4 4 5 6 6 6 6 8 7 7 7 7 6 7
3 3 1 2 4 5 6 6 7 7 8 8 8 9 8 5 4 3 3 3 4 4 5 5 5 5 6 5 4 5 4 4 4 5 5 5 5 6 6 6 6 6 7
3 1 1 4 5 6 7 7 7 7 8 7 6 5 7 5 5 5 5 8 10 9 10 11 9 6 9 9 8 9 7 5 3 4 5 5 5 6 6 6 7 6 8
Wind_Direction
66 83 94 106 116 120 129 137 136 148 121 134 135 155 192 142 99 80 74 72 69 72 73 77 71 56 48 43 25 355 346 335 337 305 308 288 262 177 321 3 10 7 5
104 92 98 115 131 138 138 130 130 156 152 155 175 150 150 105 76 62 67 75 71 67 69 59 56 47 43 31 12 359 332 318 344 326 299 303 241 265 268 350 1 6 344
124 115 110 108 120 133 145 147 141 136 148 171 131 109 106 129 172 148 93 59 53 60 63 69 69 68 26 359 345 344 346 329 328 343 307 304 301 334 303 315 325 334 335
136 141 143 133 144 149 143 131 128 134 136 136 141 157 83 63 52 46 88 74 45 64 67 99 118 95 338 330 334 344 342 326 322 320 300 310 312 297 298 293 309 314 309
168 167 162 136 133 153 140 130 120 104 105 104 93 87 71 65 69 70 98 31 20 357 237 213 216 269 291 307 316 322 325 314 300 304 317 312 291 277 265 295 304 286 295
187 174 165 163 163 159 138 106 101 93 82 82 73 83 84 85 66 27 344 308 290 274 247 243 253 264 263 270 280 290 290 294 272 266 267 270 293 294 297 300 303 304 294
186 184 174 163 153 119 114 115 100 88 87 92 98 96 104 84 30 354 327 310 281 256 251 241 250 275 286 283 271 264 270 270 268 277 283 279 282 292 294 293 285 285 296
191 183 175 173 164 151 156 127 124 123 120 123 112 121 103 29 339 283 279 274 267 268 268 261 273 271 256 247 246 258 273 278 272 275 279 287 288 298 290 295 297 295 293
182 179 166 162 160 150 136 140 136 130 138 118 107 50 315 330 320 303 282 279 280 286 292 277 269 263 262 269 270 269 281 277 291 292 295 297 309 305 297 286 289 298 294
122 117 114 114 106 112 117 103 87 99 109 56 24 4 346 321 298 288 284 295 304 300 290 280 273 277 282 279 276 277 286 286 288 288 295 305 312 305 298 289 290 289 284
120 112 107 107 107 102 101 100 82 57 19 24 14 337 328 307 313 321 317 311 303 300 287 277 275 276 278 278 256 270 283 268 280 289 308 305 308 301 300 296 291 286 283
124 120 120 122 111 102 102 102 92 72 51 47 7 6 356 354 346 345 341 337 320 308 293 292 291 291 286 287 297 268 241 307 300 313 305 301 306 298 296 295 295 293 290
136 136 133 114 101 92 86 81 73 69 55 30 3 355 1 1 352 340 330 329 331 322 318 302 296 298 286 267 250 240 142 284 317 308 301 302 301 296 301 301 297 292 291
146 138 119 106 94 79 84 88 70 47 20 2 350 332 328 320 317 317 332 335 331 327 330 326 306 313 343 19 248 174 35 322 309 303 300 302 300 302 306 303 298 296 289
155 139 133 125 117 123 101 78 45 18 4 336 316 290 289 295 313 333 332 334 334 329 317 321 328 82 151 198 205 58 326 319 313 309 310 307 313 308 305 301 300 301 292
159 151 143 138 120 107 103 38 357 341 335 319 305 294 287 307 324 332 328 323 323 327 360 15 311 263 301 115 78 355 335 326 319 318 315 314 314 314 313 305 296 295 292
169 161 149 144 146 131 93 15 344 342 351 331 315 307 300 308 320 318 317 320 313 289 297 290 278 270 142 66 65 57 338 326 325 321 320 319 319 314 314 307 292 281 281
169 165 155 146 140 112 78 16 9 3 340 330 328 323 307 303 308 315 324 320 315 294 300 286 237 182 99 77 86 47 332 323 326 326 322 319 317 316 311 303 309 312 301
158 149 147 134 123 125 123 21 359 342 329 331 327 318 303 296 304 318 325 318 311 300 285 240 189 195 174 51 104 330 322 324 326 322 322 319 319 322 311 316 313 312 309
146 143 132 129 139 126 71 1 331 329 328 328 320 316 311 305 316 319 325 317 306 296 216 168 189 180 235 254 332 318 317 321 320 321 323 322 324 319 322 322 320 314 318
134 127 124 122 112 93 355 304 321 315 311 314 318 325 332 322 318 318 315 312 285 226 200 206 226 267 251 269 287 304 315 317 317 321 323 327 328 324 329 330 321 327 332
120 115 115 109 113 318 248 288 303 314 302 315 318 328 327 314 307 311 320 316 268 241 193 250 271 266 262 256 270 285 307 315 315 316 322 322 329 328 328 325 330 337 328
132 129 109 174 264 302 250 279 308 314 315 312 315 316 321 318 314 312 307 301 277 260 266 275 290 291 279 273 264 277 297 300 306 314 321 320 325 330 323 337 337 333 341
135 134 165 264 304 328 306 281 303 314 325 321 315 317 313 318 307 291 281 285 282 273 273 279 281 292 287 284 272 261 292 286 294 318 320 318 319 317 318 330 346 346 346
148 165 194 293 307 322 318 314 309 307 314 312 306 305 310 293 278 250 260 269 258 245 274 280 278 286 291 297 252 264 292 295 327 316 323 331 337 338 344 345 348 348 350
160 179 309 317 321 322 317 316 302 307 306 296 287 282 298 277 265 263 275 243 251 254 247 252 248 268 252 260 259 269 281 279 315 304 324 330 331 332 336 339 343 347 350